Hamilton Island, Australia

10:17 AM AEST on April 30, 2017 (GMT +1000)
Hamilton Island

Weather History for YBHM - January, 2013

Change the Weather History Date:

Thursday, January 10, 2013

  Actual Average Record
Temperature  
Mean Temperature 81 °F -  
Max Temperature 87 °F - - ()
Min Temperature 75 °F - - ()
Cooling Degree Days 16    
Growing Degree Days 31 (Base 50)    
Moisture  
Dew Point 74 °F    
Average Humidity 78    
Maximum Humidity 90    
Minimum Humidity 60    
Precipitation  
Precipitation 0.00 in - - ()
Sea Level Pressure  
Sea Level Pressure 29.70 in    
Wind  
Wind Speed 8 mph ()    
Max Wind Speed 16 mph    
Max Gust Speed -    
T = Trace of Precipitation, MM = Missing Value Source: Averaged Metar Reports

Daily Weather History Graph

Daily Weather History Graph

Search for Another Location

Airport or City:

Trip Planner

Search our weather history database for the weather conditions in past years. The results will help you decide how hot, cold, wet, or windy it might be!

Date:

Astronomy

Jan. 10, 2013 Rise Set
Actual Time 5:33 AM AEST 6:49 PM AEST
Civil Twilight 5:08 AM AEST 7:14 PM AEST
Nautical Twilight 4:39 AM AEST 7:43 PM AEST
Astronomical Twilight 4:10 AM AEST 8:12 PM AEST
Moon 3:34 AM AEST (1/10) 5:11 PM AEST (1/10)
Length of Visible Light 14h 05m
Length of Day
13h 16m
Waning Crescent, 4% of the Moon is Illuminated
Jan 10
Waning Crescent
Jan 12
New
Jan 19
First Quarter
Jan 27
Full
Feb 3
Last Quarter

Hourly Weather History & Observations

Time (AEST) Temp. Heat Index Dew Point Humidity Pressure Visibility Wind Dir Wind Speed Gust Speed Precip Events Conditions
12:00 AM 77 °F - 72 °F 81% 29.68 in - North 5.8 mph - -  
12:00 AM 77.0 °F - 71.6 °F 83% 29.68 in - North 5.8 mph - N/A   Unknown
12:30 AM 77.0 °F - 71.6 °F 83% 29.68 in - North 6.9 mph - N/A   Unknown
1:00 AM 77.0 °F - 73.4 °F 89% 29.65 in - North 6.9 mph - N/A   Unknown
1:30 AM 77.0 °F - 73.4 °F 89% 29.65 in - NNW 5.8 mph - N/A   Unknown
2:00 AM 77.0 °F - 73.4 °F 89% 29.65 in - NW 4.6 mph - N/A   Unknown
2:30 AM 77.0 °F - 73.4 °F 89% 29.62 in - NNW 5.8 mph - N/A   Unknown
3:00 AM 76 °F - 74 °F 90% 29.63 in - North 4.6 mph - -  
3:00 AM 77.0 °F - 73.4 °F 89% 29.62 in - North 4.6 mph - N/A   Unknown
3:30 AM 77.0 °F - 73.4 °F 89% 29.62 in - NNW 5.8 mph - N/A   Unknown
4:00 AM 77.0 °F - 73.4 °F 89% 29.62 in - North 6.9 mph - N/A   Unknown
4:30 AM 77.0 °F - 73.4 °F 89% 29.65 in - North 5.8 mph - N/A   Unknown
5:00 AM 77.0 °F - 73.4 °F 89% 29.65 in - North 5.8 mph - N/A   Unknown
5:30 AM 77.0 °F - 73.4 °F 89% 29.68 in - North 4.6 mph - N/A   Unknown
6:00 AM 77 °F - 74 °F 86% 29.69 in - North 3.5 mph - -  
6:00 AM 77.0 °F - 73.4 °F 89% 29.68 in - North 3.5 mph - N/A   Unknown
6:30 AM 78.8 °F - 73.4 °F 83% 29.71 in - North 5.8 mph - N/A   Unknown
7:00 AM 80.6 °F 85.4 °F 73.4 °F 79% 29.71 in - North 8.1 mph - N/A   Unknown
7:30 AM 80.6 °F 85.4 °F 73.4 °F 79% 29.71 in - North 10.4 mph - N/A   Unknown
8:00 AM 80.6 °F 85.4 °F 73.4 °F 79% 29.71 in - NNW 8.1 mph - N/A   Unknown
8:30 AM 80.6 °F 86.2 °F 75.2 °F 84% 29.71 in - NW 10.4 mph - N/A   Unknown
9:00 AM 82 °F - 74 °F 70% 29.73 in - NW 12.7 mph - -  
9:00 AM 82.4 °F 88.2 °F 73.4 °F 74% 29.71 in - NW 12.7 mph - N/A   Unknown
9:30 AM 82.4 °F 88.2 °F 73.4 °F 74% 29.71 in - NW 13.8 mph - N/A   Unknown
10:00 AM 82.4 °F 88.2 °F 73.4 °F 74% 29.74 in - NW 13.8 mph - N/A   Unknown
10:30 AM 82.4 °F 89.5 °F 75.2 °F 79% 29.74 in - NW 12.7 mph - N/A   Unknown
11:00 AM 84.2 °F 92.3 °F 75.2 °F 74% 29.74 in - NW 11.5 mph - N/A   Unknown
11:30 AM 84.2 °F 92.3 °F 75.2 °F 74% 29.74 in - NNW 13.8 mph - N/A   Unknown
12:00 PM 84 °F - 75 °F 67% 29.73 in - NNW 11.5 mph - -  
12:00 PM 84.2 °F 92.3 °F 75.2 °F 74% 29.71 in - NNW 11.5 mph - N/A   Unknown
12:30 PM 86.0 °F 93.4 °F 73.4 °F 66% 29.71 in - NNW 11.5 mph - N/A   Unknown
1:00 PM 86.0 °F 95.1 °F 75.2 °F 70% 29.71 in - NNE 5.8 mph - N/A   Unknown
1:30 PM 86.0 °F 95.1 °F 75.2 °F 70% 29.71 in - East 6.9 mph - N/A   Unknown
2:00 PM 87.8 °F 99.7 °F 77.0 °F 70% 29.71 in - South 4.6 mph - N/A   Unknown
2:30 PM 86.0 °F 95.1 °F 75.2 °F 70% 29.68 in - NNW 11.5 mph - N/A   Unknown
3:00 PM 86 °F - 74 °F 60% 29.69 in - NNW 10.4 mph - -  
3:00 PM 86.0 °F 93.4 °F 73.4 °F 66% 29.68 in - NNW 10.4 mph - N/A   Unknown
3:30 PM 87.8 °F 99.7 °F 77.0 °F 70% 29.68 in - WNW 8.1 mph - N/A   Unknown
4:00 PM 87.8 °F 97.6 °F 75.2 °F 66% 29.68 in - NNE 5.8 mph - N/A   Unknown
4:30 PM 86.0 °F 95.1 °F 75.2 °F 70% 29.68 in - NE 6.9 mph - N/A   Unknown
5:00 PM 84.2 °F 90.9 °F 73.4 °F 70% 29.68 in - NE 12.7 mph - N/A   Unknown
5:30 PM 84.2 °F 90.9 °F 73.4 °F 70% 29.68 in - NE 11.5 mph - N/A   Unknown
6:00 PM 83 °F - 73 °F 65% 29.69 in - NE 11.5 mph - -  
6:00 PM 82.4 °F 88.2 °F 73.4 °F 74% 29.68 in - NE 11.5 mph - N/A   Unknown
6:30 PM 80.6 °F 85.4 °F 73.4 °F 79% 29.71 in - ENE 12.7 mph - N/A   Unknown
7:00 PM 80.6 °F 85.4 °F 73.4 °F 79% 29.71 in - ENE 12.7 mph - N/A   Unknown
7:30 PM 80.6 °F 85.4 °F 73.4 °F 79% 29.71 in - ENE 13.8 mph - N/A   Unknown
8:00 PM 80.6 °F 85.4 °F 73.4 °F 79% 29.74 in - ENE 12.7 mph - N/A   Unknown
8:30 PM 80.6 °F 85.4 °F 73.4 °F 79% 29.74 in - ENE 13.8 mph - N/A   Unknown
9:00 PM 80.6 °F 85.4 °F 73.4 °F 79% 29.74 in - ENE 16.1 mph - N/A   Unknown
9:30 PM 78.8 °F - 73.4 °F 83% 29.77 in - NE 16.1 mph - N/A   Unknown
10:00 PM 78.8 °F - 73.4 °F 83% 29.77 in - ENE 16.1 mph - N/A   Unknown
10:30 PM 78.8 °F - 73.4 °F 83% 29.77 in - ENE 13.8 mph - N/A   Unknown
11:00 PM 78.8 °F - 73.4 °F 83% 29.77 in - ENE 11.5 mph - N/A   Unknown
11:30 PM 78.8 °F - 71.6 °F 78% 29.77 in - NE 10.4 mph - N/A   Unknown